Flag for Germany Weather past 2 weeks in Willich, North Rhine-Westphalia, Germany

Now
61 °F

Sunny.


Feels Like: 61 °F
Forecast: 62 / 77 °F
Wind: 3 mph from North

Location: Monchengladbach Airport

Current Time: Sep 18, 2014 at 8:28:04 AM

Latest Report: Sep 18, 2014 at 7:50 AM


Visibility: 10 mi

Pressure: 29.83 "Hg

Humidity: 88%

Dew point: 57 °F

Location of WillichLocation

Historic Weather in Willich — Graph

°F

Willich temperature yesterday

Maximum temperature yesterday: 77 °F (at 3:20 PM)
Minimum temperature yesterday: 54 °F (at 7:50 AM)
Average temperature yesterday: 70 °F

Past Weeks' High & Low Weather Summary

 TemperatureHumidityPressure
High77 °F (Sep 5, 4:50 PM)100% (Sep 3, 7:50 AM)30.24 "Hg (Sep 3, 7:50 AM)
Low48 °F (Sep 12, 7:50 AM)47% (Sep 17, 5:50 PM)29.86 "Hg (Sep 17, 3:20 PM)
Average65 °F74%30.05 "Hg
* Reported Sep 2 8:20 PM — Sep 17 8:20 PM, Willich, Weather by CustomWeather, © 2014

Note: Actual official high and low records may vary slightly from our data, if they occured in-between our weather recording intervals... More about our weather records

Advertising

Willich weather history for previous 24 hours

 ConditionsComfort  
Time TempWeatherWind HumidityBarometerVisibility
8:20 PM
Sep 17
63 °FClear.3 mph88%29.86 "Hg10 mi
7:50 PM64 °FClear.2 mph83%29.86 "Hg10 mi
7:20 PM70 °FClear.2 mph69%29.86 "Hg10 mi
6:50 PM75 °FPassing clouds.5 mph50%29.86 "HgN/A
6:20 PM75 °FPassing clouds.6 mph50%29.86 "HgN/A
5:50 PM77 °FClear.8 mph47%29.86 "Hg10 mi
5:20 PM77 °FPassing clouds.8 mph51%29.86 "HgN/A
4:50 PM77 °FPassing clouds.7 mph51%29.86 "HgN/A
4:20 PM77 °FPassing clouds.7 mph51%29.86 "HgN/A
3:50 PM75 °FClear.8 mph54%29.86 "Hg10 mi
3:20 PM77 °FClear.6 mph54%29.86 "Hg10 mi
2:50 PM75 °FPassing clouds.8 mph54%29.89 "HgN/A
2:20 PM75 °FPassing clouds.8 mph57%29.89 "HgN/A
1:50 PM75 °FPassing clouds.7 mph57%29.89 "HgN/A
1:20 PM73 °FClear.7 mph57%29.89 "Hg10 mi
12:50 PM73 °FPassing clouds.5 mph65%29.89 "HgN/A
12:20 PM72 °FClear.7 mph65%29.89 "Hg6 mi
11:50 AM70 °FClear.8 mph69%29.92 "Hg5 mi
11:20 AM68 °FClear.8 mph73%29.92 "Hg4 mi
10:50 AM68 °FClear.7 mph73%29.92 "Hg5 mi
10:20 AM66 °FClear.6 mph78%29.92 "Hg5 mi
9:50 AM64 °FClear.5 mph83%29.92 "Hg4 mi
9:20 AM61 °FClear.5 mph88%29.92 "Hg5 mi
8:50 AM59 °FClear.5 mph94%29.92 "Hg4 mi
8:20 AM57 °FFog.3 mph100%29.92 "Hg3 mi
Weather by CustomWeather, © 2014

See weather overviewHow to use our weather pages